Grissom Arb, IN

9:29 AM EDT on September 25, 2016 (GMT -0400)
Grissom Air Reserve Base

Weather History for KGUS - December, 2013

Change the Weather History Date:

Saturday, December 7, 2013

  Actual Average Record
Temperature  
Mean Temperature 18 °F -  
Max Temperature 25 °F 39 °F 59 °F (2004)
Min Temperature 12 °F 27 °F 0 °F (2005)
Degree Days  
Heating Degree Days 46    
Moisture  
Dew Point 12 °F    
Average Humidity 77    
Maximum Humidity 91    
Minimum Humidity 57    
Precipitation  
Precipitation 0.00 in - - ()
Sea Level Pressure  
Sea Level Pressure 30.60 in    
Wind  
Wind Speed 8 mph (NNW)    
Max Wind Speed 10 mph    
Max Gust Speed -    
Visibility 10 miles    
Events      
Averages and records for this station are not official NWS values.
T = Trace of Precipitation, MM = Missing Value Source: NWS Daily Summary

Daily Weather History Graph

Daily Weather History Graph

Search for Another Location

Airport or City:

Trip Planner

Search our weather history database for the weather conditions in past years. The results will help you decide how hot, cold, wet, or windy it might be!

Date:

Astronomy

Dec. 07, 2013 Rise Set
Actual Time 7:55 AM EST 5:17 PM EST
Civil Twilight 7:24 AM EST 5:47 PM EST
Nautical Twilight 6:50 AM EST 6:22 PM EST
Astronomical Twilight 6:17 AM EST 6:55 PM EST
Moon 11:38 AM EST (12/7) 10:59 PM EST (12/7)
Length of Visible Light 10h 23m
Length of Day
9h 22m
Waxing Crescent, 29% of the Moon is Illuminated
Dec 7
Waxing Crescent
Dec 9
First Quarter
Dec 17
Full
Dec 25
Last Quarter
Jan 1
New

Hourly Weather History & Observations

Time (EST) Temp. Windchill Dew Point Humidity Pressure Visibility Wind Dir Wind Speed Gust Speed Precip Events Conditions
12:58 AM 18.1 °F 7.1 °F 14.4 °F 85% 30.50 in 10.0 mi WNW 9.2 mph - N/A   Overcast
1:58 AM 16.7 °F 4.5 °F 12.7 °F 84% 30.51 in 10.0 mi WNW 10.4 mph - N/A   Scattered Clouds
2:58 AM 15.8 °F 4.2 °F 12.6 °F 87% 30.53 in 10.0 mi WNW 9.2 mph - N/A   Clear
3:58 AM 15.4 °F 4.6 °F 12.2 °F 87% 30.54 in 10.0 mi WNW 8.1 mph - N/A   Clear
4:58 AM 14.7 °F 3.8 °F 11.7 °F 88% 30.55 in 10.0 mi WNW 8.1 mph - N/A   Clear
5:58 AM 14.0 °F 2.9 °F 11.3 °F 89% 30.58 in 10.0 mi WNW 8.1 mph - N/A   Clear
6:58 AM 13.5 °F 4.4 °F 10.8 °F 89% 30.60 in 10.0 mi WNW 5.8 mph - N/A   Clear
7:58 AM 12.7 °F 3.6 °F 10.2 °F 90% 30.61 in 10.0 mi WNW 5.8 mph - N/A   Clear
8:58 AM 13.8 °F 2.7 °F 10.9 °F 88% 30.63 in 10.0 mi WNW 8.1 mph - N/A   Clear
9:58 AM 17.6 °F 8.2 °F 12.9 °F 82% 30.65 in 10.0 mi NW 6.9 mph - N/A   Clear
10:33 AM 19.4 °F 8.6 °F 14.0 °F 80% 30.61 in 10.0 mi NW 9.2 mph - N/A   Clear
10:58 AM 21.2 °F 10.1 °F 13.6 °F 73% 30.66 in 10.0 mi NNW 10.4 mph - N/A   Clear
11:58 AM 23.2 °F 14.1 °F 13.5 °F 66% 30.66 in 10.0 mi NW 8.1 mph - N/A   Clear
12:58 PM 24.6 °F 18.8 °F 13.1 °F 62% 30.64 in 10.0 mi North 4.6 mph - N/A   Partly Cloudy
1:13 PM 24.8 °F 16.9 °F 12.2 °F 59% 30.59 in 10.0 mi Variable 6.9 mph - N/A   Mostly Cloudy
1:38 PM 24.8 °F 16.1 °F 12.2 °F 59% 30.58 in 10.0 mi NNW 8.1 mph - N/A   Scattered Clouds
1:58 PM 25.2 °F 15.7 °F 12.2 °F 58% 30.62 in 10.0 mi NNW 9.2 mph - N/A   Clear
2:58 PM 25.5 °F 15.5 °F 12.9 °F 59% 30.62 in 10.0 mi NW 10.4 mph - N/A   Clear
3:58 PM 24.4 °F 15.6 °F 10.9 °F 57% 30.61 in 10.0 mi NNW 8.1 mph - N/A   Clear
4:58 PM 22.3 °F 13.9 °F 10.4 °F 60% 30.61 in 9.0 mi NNW 6.9 mph - N/A   Clear
5:58 PM 20.8 °F 14.4 °F 11.8 °F 68% 30.63 in 10.0 mi NNW 4.6 mph - N/A   Clear
6:58 PM 19.9 °F 11.1 °F 12.0 °F 71% 30.65 in 10.0 mi NNW 6.9 mph - N/A   Clear
7:58 PM 18.3 °F 10.2 °F 12.4 °F 78% 30.65 in 10.0 mi North 5.8 mph - N/A   Clear
8:58 PM 15.8 °F 8.6 °F 12.9 °F 88% 30.64 in 10.0 mi NNE 4.6 mph - N/A   Clear
9:58 PM 14.2 °F 5.3 °F 11.7 °F 90% 30.63 in 10.0 mi NNE 5.8 mph - N/A   Clear
10:58 PM 15.1 °F 4.2 °F 12.9 °F 91% 30.60 in 10.0 mi NE 8.1 mph - N/A   Clear
11:58 PM 16.3 °F 4.9 °F 13.6 °F 89% 30.56 in 10.0 mi ENE 9.2 mph - N/A   Clear